| time (UTC) | temp F | wind direction | speed MPH | gust MPH | rain 1hr in | rain 24hr in | rain mn in | humidity % | barometer mb |
| 20260903141509 | 66 | 302 | 0.0 | 0.0 | 0.00 | 0.52 | 0.51 | 90 | 1014.2 |
| 20260903140005 | 66 | 302 | 0.0 | 0.0 | 0.00 | 0.52 | 0.51 | 90 | 1014.3 |
| 20260903134600 | 65 | 302 | 0.0 | 0.0 | 0.00 | 0.52 | 0.51 | 90 | 1014.4 |
| 20260903133109 | 65 | 301 | 0.0 | 0.0 | 0.00 | 0.52 | 0.51 | 90 | 1014.5 |
| 20260903131608 | 64 | 302 | 0.0 | 0.0 | 0.00 | 0.52 | 0.51 | 90 | 1014.5 |
| 20260903130112 | 64 | 301 | 0.0 | 0.0 | 0.00 | 0.52 | 0.51 | 90 | 1014.6 |
| 20260903124552 | 64 | 301 | 0.0 | 0.0 | 0.00 | 0.52 | 0.51 | 90 | 1014.6 |
| 20260903123050 | 64 | 302 | 0.0 | 0.0 | 0.00 | 0.52 | 0.51 | 89 | 1014.8 |
| 20260903121549 | 64 | 301 | 0.0 | 0.0 | 0.00 | 0.52 | 0.51 | 90 | 1014.8 |
| 20260903120049 | 64 | 301 | 0.0 | 0.0 | 0.00 | 0.52 | 0.51 | 89 | 1015.1 |
| 20260903114636 | 63 | 301 | 0.0 | 0.0 | 0.00 | 0.52 | 0.51 | 89 | 1015.3 |
| 20260903113041 | 64 | 301 | 0.0 | 0.0 | 0.00 | 0.52 | 0.51 | 89 | 1015.4 |
| 20260903111518 | 63 | 301 | 0.0 | 0.0 | 0.00 | 0.52 | 0.51 | 89 | 1015.3 |
| 20260903110015 | 63 | 301 | 0.0 | 0.0 | 0.00 | 0.52 | 0.51 | 89 | 1015.0 |
| 20260903104514 | 63 | 301 | 0.0 | 0.0 | 0.01 | 0.52 | 0.51 | 89 | 1015.0 |
| 20260903103013 | 63 | 302 | 0.0 | 4.0 | 0.01 | 0.52 | 0.51 | 89 | 1015.0 |
| 20260903101543 | 63 | 302 | 0.0 | 6.0 | 0.01 | 0.52 | 0.51 | 89 | 1014.9 |
| 20260903100042 | 63 | 281 | 4.0 | 8.0 | 0.02 | 0.52 | 0.51 | 89 | 1014.9 |
| 20260903094538 | 63 | 118 | 0.0 | 1.0 | 0.01 | 0.51 | 0.50 | 89 | 1014.8 |
| 20260903093042 | 63 | 117 | 0.0 | 4.0 | 0.01 | 0.51 | 0.50 | 89 | 1014.7 |
| 20260903091539 | 62 | 108 | 0.0 | 0.0 | 0.01 | 0.51 | 0.50 | 89 | 1015.1 |
| 20260903090040 | 62 | 108 | 0.0 | 0.0 | 0.01 | 0.50 | 0.49 | 89 | 1015.1 |
| 20260903084532 | 62 | 107 | 0.0 | 0.0 | 0.13 | 0.50 | 0.49 | 89 | 1015.1 |
| 20260903083132 | 62 | 107 | 0.0 | 0.0 | 0.28 | 0.50 | 0.49 | 89 | 1014.8 |
| 20260903081528 | 61 | 108 | 0.0 | 0.0 | 0.42 | 0.50 | 0.49 | 88 | 1015.3 |
| 20260903080027 | 61 | 108 | 0.0 | 0.0 | 0.48 | 0.49 | 0.48 | 88 | 1015.4 |
| 20260903074521 | 61 | 108 | 0.0 | 0.0 | 0.35 | 0.36 | 0.35 | 87 | 1015.6 |
| 20260903073018 | 62 | 108 | 0.0 | 0.0 | 0.19 | 0.20 | 0.19 | 86 | 1016.0 |
| 20260903071516 | 63 | 108 | 0.0 | 0.0 | 0.06 | 0.07 | 0.06 | 84 | 1016.3 |
| 20260903070015 | 63 | 108 | 0.0 | 1.0 | 0.00 | 0.01 | 0.00 | 83 | 1016.2 |
| 20260903064543 | 63 | 108 | 0.0 | 0.0 | 0.00 | 0.01 | 0.00 | 83 | 1016.3 |
| 20260903063039 | 63 | 108 | 0.0 | 0.0 | 0.00 | 0.01 | 0.00 | 83 | 1016.7 |
| 20260903061506 | 63 | 108 | 0.0 | 0.0 | 0.00 | 0.01 | 0.00 | 83 | 1017.3 |
| 20260903060004 | 63 | 108 | 0.0 | 0.0 | 0.00 | 0.01 | 0.00 | 83 | 1017.5 |
| 20260903054601 | 63 | 108 | 0.0 | 0.0 | 0.00 | 0.01 | 0.00 | 83 | 1017.7 |
| 20260903053030 | 63 | 108 | 0.0 | 0.0 | 0.00 | 0.01 | 0.00 | 83 | 1017.9 |
| 20260903051530 | 63 | 108 | 0.0 | 0.0 | 0.00 | 0.01 | 0.00 | 82 | 1017.7 |
| 20260903050026 | 63 | 108 | 0.0 | 0.0 | 0.00 | 0.01 | 0.00 | 82 | 1018.1 |
| 20260903044524 | 63 | 108 | 0.0 | 0.0 | 0.00 | 0.01 | 0.00 | 81 | 1018.3 |
| 20260903043034 | 63 | 108 | 0.0 | 0.0 | 0.00 | 0.01 | 0.00 | 81 | 1018.2 |
| 20260903041529 | 64 | 108 | 0.0 | 0.0 | 0.00 | 0.01 | 0.00 | 81 | 1018.3 |
| 20260903040021 | 64 | 108 | 0.0 | 0.0 | 0.00 | 0.01 | 0.00 | 80 | 1018.4 |
| 20260903034527 | 64 | 108 | 0.0 | 0.0 | 0.00 | 0.01 | 0.00 | 80 | 1018.3 |
| 20260903033018 | 64 | 108 | 0.0 | 0.0 | 0.00 | 0.01 | 0.00 | 81 | 1018.3 |
| 20260903031515 | 64 | 108 | 0.0 | 0.0 | 0.00 | 0.01 | 0.00 | 80 | 1018.5 |
| 20260903030011 | 64 | 108 | 0.0 | 0.0 | 0.00 | 0.01 | 0.00 | 80 | 1018.9 |
| 20260903024509 | 64 | 108 | 0.0 | 1.0 | 0.00 | 0.01 | 0.00 | 80 | 1019.1 |
| 20260903023008 | 64 | 109 | 0.0 | 0.0 | 0.00 | 0.01 | 0.00 | 79 | 1019.2 |
| 20260903020006 | 64 | 109 | 0.0 | 0.0 | 0.00 | 0.01 | 0.00 | 78 | 1019.7 |
| 20260903014504 | 64 | 109 | 0.0 | 0.0 | 0.00 | 0.01 | 0.00 | 78 | 1019.3 |
| 20260903013003 | 65 | 108 | 0.0 | 0.0 | 0.00 | 0.01 | 0.00 | 78 | 1019.1 |
| 20260903011501 | 65 | 109 | 0.0 | 0.0 | 0.00 | 0.01 | 0.00 | 79 | 1019.0 |
| 20260903010056 | 65 | 109 | 0.0 | 1.0 | 0.00 | 0.01 | 0.00 | 80 | 1019.3 |
| 20260903004556 | 66 | 108 | 0.0 | 0.0 | 0.00 | 0.01 | 0.00 | 80 | 1019.6 |
| 20260903003053 | 66 | 108 | 0.0 | 0.0 | 0.00 | 0.01 | 0.00 | 79 | 1019.5 |
| 20260903001553 | 66 | 108 | 0.0 | 0.0 | 0.00 | 0.01 | 0.00 | 78 | 1019.4 |
| 20260903000049 | 66 | 108 | 0.0 | 0.0 | 0.00 | 0.01 | 0.00 | 77 | 1019.5 |
| 20260902234549 | 67 | 108 | 0.0 | 0.0 | 0.00 | 0.01 | 0.00 | 77 | 1019.7 |
| 20260902233041 | 67 | 108 | 0.0 | 0.0 | 0.00 | 0.01 | 0.00 | 76 | 1020.0 |
| 20260902231541 | 68 | 108 | 0.0 | 0.0 | 0.00 | 0.01 | 0.00 | 74 | 1020.4 |
| 20260902230036 | 68 | 108 | 0.0 | 0.0 | 0.00 | 0.01 | 0.00 | 74 | 1020.3 |
| 20260902224533 | 69 | 108 | 0.0 | 0.0 | 0.00 | 0.01 | 0.00 | 73 | 1020.5 |
| 20260902223031 | 69 | 108 | 0.0 | 0.0 | 0.00 | 0.01 | 0.00 | 72 | 1020.6 |
| 20260902221533 | 70 | 108 | 0.0 | 0.0 | 0.00 | 0.01 | 0.01 | 71 | 1020.6 |
| 20260902220031 | 71 | 108 | 0.0 | 0.0 | 0.00 | 0.01 | 0.01 | 70 | 1020.3 |
| 20260902214526 | 72 | 108 | 0.0 | 0.0 | 0.00 | 0.01 | 0.01 | 67 | 1020.1 |
| 20260902213028 | 72 | 157 | 0.0 | 3.0 | 0.00 | 0.01 | 0.01 | 68 | 1019.9 |
| 20260902211522 | 72 | 132 | 0.0 | 4.0 | 0.00 | 0.06 | 0.01 | 67 | 1019.5 |
| 20260902210023 | 72 | 97 | 0.0 | 1.0 | 0.00 | 0.06 | 0.01 | 71 | 1019.5 |
| 20260902204521 | 72 | 98 | 0.0 | 1.0 | 0.00 | 0.06 | 0.01 | 72 | 1019.7 |
| 20260902203016 | 72 | 98 | 0.0 | 0.0 | 0.00 | 0.06 | 0.01 | 71 | 1020.1 |
| 20260902201519 | 72 | 98 | 0.0 | 0.0 | 0.00 | 0.07 | 0.01 | 73 | 1020.5 |
| 20260902200013 | 72 | 98 | 0.0 | 0.0 | 0.00 | 0.07 | 0.01 | 72 | 1020.4 |
| 20260902194520 | 72 | 98 | 0.0 | 1.0 | 0.00 | 0.07 | 0.01 | 71 | 1020.4 |
| 20260902193013 | 72 | 99 | 0.0 | 1.0 | 0.00 | 0.07 | 0.01 | 69 | 1020.4 |
| 20260902191514 | 73 | 97 | 0.0 | 0.0 | 0.00 | 0.13 | 0.01 | 69 | 1020.5 |
| 20260902190108 | 73 | 99 | 0.0 | 3.0 | 0.00 | 0.13 | 0.01 | 68 | 1020.7 |
| 20260902184508 | 74 | 193 | 0.0 | 1.0 | 0.01 | 0.13 | 0.01 | 68 | 1020.7 |
| 20260902183006 | 73 | 88 | 0.0 | 3.0 | 0.01 | 0.13 | 0.01 | 68 | 1020.8 |
| 20260902181506 | 73 | 82 | 0.0 | 1.0 | 0.01 | 0.15 | 0.01 | 68 | 1020.8 |
| 20260902180035 | 74 | 82 | 0.0 | 8.0 | 0.01 | 0.15 | 0.01 | 68 | 1020.6 |
| 20260902174533 | 73 | 167 | 0.0 | 6.0 | 0.00 | 0.14 | 0.00 | 70 | 1020.6 |
| 20260902173101 | 72 | 87 | 0.0 | 1.0 | 0.00 | 0.14 | 0.00 | 70 | 1020.8 |
| 20260902173000 | 72 | 87 | 0.0 | 1.0 | 0.00 | 0.14 | 0.00 | 70 | 1020.9 |
| 20260902171608 | 72 | 98 | 0.0 | 0.0 | 0.00 | 0.28 | 0.00 | 69 | 1021.0 |
| 20260902170056 | 72 | 168 | 0.0 | 9.0 | 0.00 | 0.28 | 0.00 | 69 | 1021.0 |
| 20260902164555 | 72 | 74 | 0.0 | 6.0 | 0.00 | 0.28 | 0.00 | 70 | 1021.2 |
| 20260902163055 | 71 | 107 | 0.0 | 4.0 | 0.00 | 0.28 | 0.00 | 72 | 1021.3 |
| 20260902161551 | 71 | 114 | 0.0 | 4.0 | 0.00 | 0.32 | 0.00 | 71 | 1021.4 |
| 20260902160106 | 71 | 120 | 0.0 | 1.0 | 0.00 | 0.32 | 0.00 | 72 | 1021.5 |
| 20260902154555 | 70 | 125 | 0.0 | 6.0 | 0.00 | 0.32 | 0.00 | 73 | 1021.6 |
| 20260902153044 | 69 | 90 | 0.0 | 1.0 | 0.00 | 0.32 | 0.00 | 74 | 1022.0 |
| 20260902151542 | 69 | 54 | 0.0 | 1.0 | 0.00 | 0.40 | 0.00 | 77 | 1021.9 |
| 20260902150040 | 69 | 105 | 0.0 | 0.0 | 0.00 | 0.40 | 0.00 | 79 | 1022.0 |
| 20260902144510 | 68 | 105 | 0.0 | 1.0 | 0.00 | 0.40 | 0.00 | 81 | 1022.0 |
| 20260902143006 | 67 | 102 | 1.0 | 7.0 | 0.00 | 0.40 | 0.00 | 81 | 1022.0 |